"startDT [UTC]","vpos","CH4 [ppm]","stdev(CH4) [ppm]","CO2 [ppm]","stdev(CO2) [ppm]","H2O_reported [%]","stdev(H2O_reported)","CavityPressure [torr]","CavityTemp [C]","OutletValve","CH4_dry [ppm]","CO2_dry [ppm]","DasTemp [C]","EtalonTemp [C]","WarmBoxTemp [C]","MPVPosition","T_ECpre [C]","T_EC1 [C]","T_EC2 [C]","p_inlet [hPa]","p_in [hPa]","p_out [hPa]","T_inlet [C]","RH_inlet [%]","dwpt_inlet [C]","T_vent [C]","RH_vent [%]","dwpt_vent [C]","flow_vent [l min-1]","flow_inlet [l min-1]","dwpt_sample [C]","T_room [C]"
2015-08-25 00:00:00,0.0,1.90815,0.00044,382.467,0.202,0.9653,0.0129,139.998,45.000,31212.95951,1.92688,387.041,34.828,45.068,45.000,0.00,0.10,-272.74,-272.80,-16,501,-946,24.9,23.7,2.8,24.5,24.9,3.1,5.73,1.94,3.2,28.8
2015-08-25 00:01:00,0.0,1.90807,0.00041,382.775,0.102,0.9475,0.0071,140.002,45.000,31212.23144,1.92639,387.268,34.871,45.068,45.000,0.00,0.10,-272.74,-272.80,-16,501,-946,24.9,23.3,2.5,24.5,24.4,2.8,5.73,1.94,3.2,28.7
2015-08-25 00:02:00,0.0,1.90777,0.00046,382.705,0.185,0.9476,0.0093,139.998,45.000,31212.58121,1.92612,387.201,34.855,45.068,45.000,0.00,0.10,-272.73,-272.79,-16,501,-946,24.9,23.3,2.6,24.5,24.4,2.9,5.73,1.93,3.2,28.7
2015-08-25 00:03:00,0.0,1.90814,0.00083,382.664,0.232,0.9508,0.0120,140.000,45.000,31213.00540,1.92654,387.177,34.844,45.068,45.000,0.00,0.10,-272.74,-272.80,-16,501,-946,24.9,23.4,2.6,24.5,24.3,2.8,5.73,1.92,3.2,28.7
2015-08-25 00:04:00,0.0,1.90837,0.00056,382.533,0.248,0.9604,0.0120,139.998,45.000,31213.29371,1.92696,387.086,34.826,45.068,45.000,0.00,0.10,-272.74,-272.80,-16,501,-946,24.9,23.6,2.7,24.6,24.7,3.1,5.73,1.92,3.2,28.7
2015-08-25 00:05:00,0.0,1.90796,0.00046,382.818,0.138,0.9421,0.0067,139.999,45.000,31213.69259,1.92620,387.289,34.822,45.068,45.000,0.00,0.10,-272.73,-272.80,-16,501,-946,24.9,23.2,2.5,24.6,24.2,2.8,5.73,1.92,3.2,28.7
2015-08-25 00:06:00,0.0,1.90762,0.00048,382.852,0.130,0.9400,0.0070,140.001,45.000,31215.00233,1.92582,387.313,34.836,45.068,45.000,0.00,0.10,-272.73,-272.80,-16,501,-946,25.0,23.1,2.4,24.6,24.2,2.8,5.73,1.92,3.3,28.7
2015-08-25 00:07:00,0.0,1.90810,0.00053,382.780,0.152,0.9356,0.0093,139.996,45.000,31213.88283,1.92617,387.226,34.851,45.068,45.000,0.00,0.10,-272.74,-272.80,-16,501,-946,24.9,23.1,2.4,24.6,24.0,2.7,5.73,1.93,3.2,28.7
2015-08-25 00:08:00,0.0,1.90746,0.00053,382.737,0.251,0.9437,0.0129,139.998,45.000,31215.97244,1.92572,387.208,34.869,45.068,45.000,0.00,0.10,-272.74,-272.80,-16,501,-946,24.9,23.1,2.4,24.6,24.2,2.8,5.73,1.94,3.3,28.7
2015-08-25 00:09:00,0.0,1.90753,0.00030,382.986,0.091,0.9272,0.0053,140.000,45.000,31215.33255,1.92549,387.386,34.867,45.068,45.000,0.00,0.10,-272.73,-272.79,-16,501,-946,24.9,22.8,2.2,24.6,23.8,2.6,5.73,1.94,3.3,28.6
2015-08-25 00:10:00,0.0,1.90724,0.00034,383.083,0.126,0.9059,0.0161,139.998,45.000,31216.58889,1.92477,387.378,34.869,45.068,45.000,0.00,0.10,-272.74,-272.80,-16,501,-946,25.0,22.2,1.9,24.6,23.4,2.3,5.73,1.95,3.3,28.7
2015-08-25 00:11:00,0.0,1.90744,0.00034,382.909,0.185,0.9106,0.0146,139.999,45.000,31217.33579,1.92502,387.227,34.875,45.068,45.000,0.00,0.10,-272.74,-272.80,-16,501,-946,24.9,22.4,2.0,24.6,23.2,2.2,5.73,1.95,3.3,28.7
2015-08-25 00:12:00,0.0,1.90787,0.00079,382.331,0.305,0.9491,0.0152,139.998,45.000,31219.10730,1.92619,386.838,34.844,45.068,45.000,0.00,0.10,-272.73,-272.80,-16,501,-946,25.0,23.4,2.6,24.6,24.1,2.8,5.73,1.96,3.3,28.7
2015-08-25 00:13:00,0.0,1.90706,0.00042,382.702,0.151,0.9365,0.0093,139.998,45.000,31216.79306,1.92522,387.135,34.837,45.068,45.000,0.00,0.10,-272.73,-272.80,-16,501,-946,25.0,22.9,2.3,24.6,24.1,2.8,5.73,1.96,3.3,28.8
2015-08-25 00:14:00,0.0,1.90731,0.00057,382.937,0.251,0.9144,0.0119,139.999,45.000,31216.67783,1.92494,387.280,34.867,45.068,45.000,0.00,0.10,-272.74,-272.80,-16,501,-946,25.0,22.4,2.1,24.6,23.6,2.4,5.73,1.97,3.3,28.7
2015-08-25 00:15:00,0.0,1.90758,0.00051,382.697,0.258,0.9246,0.0125,139.999,45.000,31217.64176,1.92549,387.076,34.867,45.068,45.000,0.00,0.10,-272.74,-272.79,-16,501,-946,25.0,22.6,2.1,24.6,23.7,2.5,5.73,1.97,3.3,28.7
2015-08-25 00:16:00,0.0,1.90753,0.00035,383.092,0.090,0.8887,0.0066,139.999,45.000,31218.51863,1.92472,387.303,34.874,45.068,45.000,0.00,0.10,-272.73,-272.79,-16,501,-946,25.0,21.7,1.6,24.6,23.0,2.1,5.73,1.97,3.3,28.7
2015-08-25 00:17:00,0.0,1.90793,0.00048,382.732,0.365,0.9104,0.0215,139.999,45.000,31218.57970,1.92545,387.052,34.875,45.068,45.000,0.00,0.10,-272.74,-272.80,-16,501,-946,25.0,22.4,2.0,24.6,23.1,2.1,5.73,1.98,3.3,28.7
2015-08-25 00:18:00,0.0,1.90780,0.00047,382.803,0.259,0.9081,0.0204,140.000,45.000,31219.15256,1.92540,387.101,34.878,45.068,45.000,0.00,0.10,-272.73,-272.79,-16,501,-946,25.0,22.2,1.9,24.6,23.4,2.4,5.73,1.98,3.3,28.7
2015-08-25 00:19:00,0.0,1.90806,0.00038,382.816,0.134,0.9102,0.0119,140.003,45.000,31219.36646,1.92563,387.132,34.875,45.068,45.000,0.00,0.10,-272.73,-272.80,-16,501,-946,25.0,22.3,2.0,24.6,23.2,2.2,5.73,1.99,3.3,28.7
2015-08-25 00:20:00,0.0,1.90760,0.00040,382.650,0.287,0.9226,0.0206,139.999,45.000,31219.53821,1.92544,387.021,34.878,45.068,45.000,0.00,0.10,-272.73,-272.80,-16,501,-946,25.0,22.5,2.1,24.6,23.7,2.5,5.73,1.99,3.3,28.7
2015-08-25 00:21:00,0.0,1.90788,0.00082,382.675,0.367,0.9181,0.0276,139.995,45.000,31219.00006,1.92554,387.035,34.893,45.068,45.000,0.00,0.10,-272.74,-272.80,-16,501,-946,25.0,22.6,2.2,24.6,23.3,2.3,5.73,1.99,3.3,28.7
2015-08-25 00:22:00,0.0,1.91014,0.00056,382.253,0.244,0.9491,0.0138,140.001,45.000,31221.73314,1.92851,386.747,34.919,45.068,45.000,0.00,0.10,-272.73,-272.80,-16,501,-946,25.0,23.3,2.6,24.6,24.3,2.9,5.73,1.98,3.3,28.7
2015-08-25 00:23:00,0.0,1.90893,0.00147,382.366,0.195,0.9371,0.0124,140.000,45.000,31220.73504,1.92718,386.808,34.902,45.068,45.000,0.00,0.10,-272.74,-272.80,-16,501,-947,25.0,23.0,2.4,24.6,24.0,2.7,5.73,1.98,3.3,28.7
2015-08-25 00:24:00,0.0,1.90847,0.00055,382.516,0.226,0.9272,0.0124,139.999,45.000,31217.92899,1.92636,386.912,34.903,45.068,45.000,0.00,0.10,-272.74,-272.81,-16,501,-947,25.0,22.8,2.3,24.6,23.7,2.5,5.73,1.97,3.3,28.8
2015-08-25 00:25:00,0.0,1.90805,0.00078,382.563,0.282,0.9249,0.0183,139.999,45.000,31216.80554,1.92590,386.948,34.899,45.068,45.000,0.00,0.10,-272.73,-272.79,-16,501,-947,25.0,22.6,2.2,24.6,23.7,2.5,5.73,1.97,3.3,28.8
2015-08-25 00:26:00,0.0,1.90941,0.00075,382.324,0.241,0.9404,0.0140,140.000,45.000,31217.35609,1.92763,386.775,34.887,45.068,45.000,0.00,0.10,-272.73,-272.79,-16,501,-947,25.0,23.0,2.4,24.6,23.9,2.7,5.73,1.97,3.3,28.7
2015-08-25 00:27:00,0.0,1.90903,0.00077,382.216,0.171,0.9555,0.0119,139.999,45.000,31217.48123,1.92749,386.747,34.880,45.068,45.000,0.00,0.10,-272.74,-272.80,-16,501,-947,25.0,23.5,2.7,24.7,24.3,2.9,5.73,1.96,3.3,28.7
2015-08-25 00:28:00,0.0,1.90908,0.00057,382.445,0.234,0.9376,0.0141,140.001,45.000,31218.10337,1.92729,386.884,34.883,45.068,45.000,0.00,0.10,-272.74,-272.80,-16,501,-946,25.0,22.9,2.4,24.7,24.1,2.8,5.73,1.96,3.3,28.8
2015-08-25 00:29:00,0.0,1.90873,0.00056,382.385,0.142,0.9413,0.0103,139.997,45.000,31216.82555,1.92691,386.847,34.907,45.068,45.000,0.00,0.10,-272.73,-272.79,-16,501,-946,25.0,23.0,2.4,24.7,24.0,2.8,5.73,1.95,3.3,28.8
2015-08-25 00:30:00,0.0,1.90882,0.00064,382.678,0.180,0.9203,0.0111,140.000,45.000,31218.24059,1.92665,387.039,34.916,45.068,45.000,0.00,0.10,-272.74,-272.80,-16,501,-946,25.0,22.5,2.1,24.7,23.6,2.5,5.73,1.95,3.3,28.8
2015-08-25 00:31:00,0.0,1.90912,0.00100,382.472,0.118,0.9310,0.0113,139.997,45.000,31219.16393,1.92707,386.885,34.899,45.068,45.000,0.00,0.10,-272.74,-272.80,-16,501,-947,25.0,22.7,2.3,24.7,23.7,2.6,5.73,1.94,3.3,28.8
2015-08-25 00:32:00,0.0,1.91080,0.00076,382.528,0.240,0.9136,0.0117,140.002,45.000,31218.93862,1.92849,386.854,34.875,45.068,45.000,0.00,0.10,-272.73,-272.79,-16,501,-946,25.0,22.3,2.0,24.7,23.4,2.4,5.73,1.93,3.3,28.7
2015-08-25 00:33:00,0.0,1.91115,0.00095,382.589,0.235,0.9136,0.0141,140.001,45.000,31219.46257,1.92882,386.919,34.874,45.068,45.000,0.00,0.10,-272.73,-272.79,-16,501,-946,25.0,22.4,2.1,24.7,23.3,2.3,5.73,1.92,3.3,28.8
2015-08-25 00:34:00,0.0,1.91084,0.00090,382.701,0.107,0.9084,0.0074,140.000,45.000,31219.33964,1.92849,387.004,34.875,45.068,45.000,0.00,0.10,-272.74,-272.80,-16,501,-947,25.0,22.2,2.0,24.7,23.2,2.3,5.73,1.93,3.3,28.8
2015-08-25 00:35:00,0.0,1.91023,0.00128,382.672,0.247,0.9058,0.0123,139.998,45.000,31218.52652,1.92763,386.968,34.898,45.068,45.000,0.00,0.10,-272.73,-272.80,-16,501,-946,25.0,22.2,1.9,24.7,23.1,2.2,5.73,1.93,3.3,28.8
2015-08-25 00:36:00,0.0,1.91260,0.00178,382.368,0.362,0.9200,0.0192,139.998,45.000,31216.92672,1.93045,386.723,34.931,45.068,45.000,0.00,0.10,-272.73,-272.80,-16,501,-946,25.0,22.4,2.1,24.7,23.5,2.4,5.73,1.93,3.3,28.8
2015-08-25 00:37:00,0.0,1.91131,0.00090,382.547,0.127,0.9076,0.0075,140.000,45.000,31218.23089,1.92902,386.842,34.937,45.067,45.000,0.00,0.10,-272.74,-272.80,-16,501,-947,25.1,22.1,1.9,24.7,23.1,2.2,5.73,1.93,3.4,28.8
2015-08-25 00:38:00,0.0,1.90882,0.00075,382.783,0.244,0.8919,0.0131,140.001,45.000,31221.70574,1.92602,387.015,34.937,45.067,45.000,0.00,0.10,-272.74,-272.80,-16,501,-946,25.1,21.8,1.8,24.7,22.8,2.0,5.73,1.94,3.4,28.7
2015-08-25 00:39:00,0.0,1.90825,0.00052,382.918,0.416,0.8847,0.0275,139.999,45.000,31220.30416,1.92543,387.099,34.939,45.067,45.000,0.00,0.10,-272.73,-272.79,-16,501,-946,25.1,21.4,1.5,24.7,22.7,2.0,5.73,1.94,3.4,28.7
2015-08-25 00:40:00,0.0,1.90878,0.00068,383.071,0.265,0.8694,0.0152,139.999,45.000,31219.39693,1.92551,387.193,34.946,45.068,45.000,0.00,0.10,-272.73,-272.79,-16,501,-947,25.1,21.2,1.3,24.7,22.1,1.6,5.73,1.94,3.4,28.7
2015-08-25 00:41:00,0.0,1.90886,0.00041,383.243,0.116,0.8523,0.0095,139.998,45.000,31219.37714,1.92535,387.277,34.938,45.068,45.000,0.00,0.10,-272.74,-272.80,-16,501,-946,25.1,20.7,1.0,24.7,21.9,1.5,5.73,1.94,3.4,28.7
2015-08-25 00:42:00,0.0,1.90886,0.00051,383.231,0.071,0.8507,0.0072,139.998,45.000,31219.18514,1.92523,387.260,34.941,45.068,45.000,0.00,0.10,-272.73,-272.80,-16,501,-946,25.1,20.8,1.1,24.7,21.6,1.3,5.73,1.94,3.4,28.7
2015-08-25 00:43:00,0.0,1.91039,0.00136,382.612,0.353,0.8940,0.0234,140.001,45.000,31222.71496,1.92751,386.849,34.942,45.068,45.000,0.00,0.10,-272.73,-272.79,-16,501,-946,25.1,21.9,1.8,24.7,22.4,1.8,5.73,1.95,3.4,28.8
2015-08-25 00:44:00,0.0,1.91283,0.00435,382.205,0.282,0.9390,0.0115,139.998,45.000,31222.34419,1.93124,386.648,34.938,45.068,45.000,0.00,0.10,-272.73,-272.80,-16,501,-947,25.1,22.9,2.4,24.7,23.8,2.7,5.73,1.95,3.4,28.8
2015-08-25 00:45:00,0.0,1.91042,0.00128,382.494,0.198,0.9222,0.0092,139.999,45.000,31220.77804,1.92813,386.867,34.926,45.068,45.000,0.00,0.10,-272.74,-272.80,-16,501,-946,25.1,22.6,2.2,24.7,23.5,2.5,5.73,1.96,3.4,28.8
2015-08-25 00:46:00,0.0,1.91126,0.00089,382.421,0.127,0.9290,0.0091,139.998,45.000,31219.57944,1.92933,386.819,34.924,45.068,45.000,0.00,0.10,-272.73,-272.79,-16,502,-946,25.1,22.6,2.2,24.7,23.6,2.6,5.73,1.96,3.4,28.8
2015-08-25 00:47:00,0.0,1.91077,0.00204,382.430,0.346,0.9287,0.0217,139.998,45.000,31219.15688,1.92885,386.828,34.914,45.068,45.000,0.00,0.10,-272.73,-272.80,-16,501,-946,25.1,22.7,2.3,24.7,23.6,2.6,5.73,1.97,3.4,28.8
2015-08-25 00:48:00,0.0,1.91049,0.00169,382.417,0.206,0.9318,0.0122,140.000,45.000,31221.29857,1.92849,386.838,34.876,45.068,45.000,0.00,0.10,-272.74,-272.80,-16,502,-946,25.1,22.8,2.4,24.7,23.6,2.6,5.73,1.98,3.4,28.8
2015-08-25 00:49:00,0.0,1.90947,0.00110,382.576,0.202,0.9193,0.0153,139.997,45.000,31221.26406,1.92720,386.934,34.875,45.068,45.000,0.00,0.10,-272.73,-272.79,-16,501,-946,25.1,22.4,2.1,24.7,23.4,2.5,5.73,1.98,3.4,28.8
2015-08-25 00:50:00,0.0,1.90843,0.00081,382.760,0.201,0.9087,0.0103,139.999,45.000,31222.09227,1.92609,387.059,34.875,45.068,45.000,0.00,0.10,-272.74,-272.80,-16,501,-946,25.1,22.1,1.9,24.7,23.2,2.3,5.73,1.98,3.4,28.8
2015-08-25 00:51:00,0.0,1.91136,0.00173,382.534,0.214,0.9182,0.0130,139.999,45.000,31223.04452,1.92916,386.883,34.875,45.068,45.000,0.00,0.10,-272.74,-272.80,-16,501,-946,25.1,22.4,2.1,24.7,23.2,2.3,5.73,1.99,3.3,28.8
2015-08-25 00:52:00,0.0,1.90926,0.00187,382.745,0.155,0.9058,0.0068,139.999,45.000,31220.86969,1.92676,387.039,34.876,45.067,45.000,0.00,0.10,-272.73,-272.80,-16,501,-946,25.1,22.1,1.9,24.7,23.1,2.3,5.73,1.98,3.3,28.8
2015-08-25 00:53:00,0.0,1.90861,0.00054,382.812,0.102,0.9001,0.0077,139.999,45.000,31219.01521,1.92600,387.077,34.875,45.067,45.000,0.00,0.10,-272.73,-272.79,-16,501,-946,25.1,21.9,1.8,24.7,22.9,2.1,5.73,1.98,3.3,28.8
2015-08-25 00:54:00,0.0,1.90769,0.00072,382.764,0.159,0.9002,0.0120,139.998,45.000,31220.06409,1.92508,387.031,34.875,45.067,45.000,0.00,0.10,-272.74,-272.80,-16,501,-946,25.1,21.9,1.8,24.7,22.9,2.2,5.73,1.98,3.4,28.8
2015-08-25 00:55:00,0.0,1.90892,0.00058,382.897,0.140,0.8826,0.0094,140.000,45.000,31221.45892,1.92600,387.074,34.874,45.068,45.000,0.00,0.10,-272.73,-272.80,-16,501,-946,25.1,21.5,1.5,24.7,22.5,1.9,5.73,1.97,3.3,28.8
2015-08-25 00:56:00,0.0,1.90869,0.00040,382.950,0.085,0.8748,0.0071,139.999,45.000,31222.98297,1.92558,387.096,34.874,45.068,45.000,0.00,0.10,-272.73,-272.79,-16,501,-946,25.1,21.3,1.4,24.7,22.2,1.7,5.73,1.97,3.4,28.8
2015-08-25 00:57:00,0.0,1.90855,0.00061,383.047,0.139,0.8618,0.0092,139.997,45.000,31221.67177,1.92516,387.130,34.877,45.068,45.000,0.00,0.10,-272.73,-272.80,-16,501,-946,25.1,21.0,1.2,24.7,21.9,1.5,5.73,1.96,3.4,28.8
2015-08-25 00:58:00,0.0,1.90844,0.00036,382.906,0.137,0.8744,0.0110,139.997,45.000,31221.22341,1.92535,387.044,34.887,45.068,45.000,0.00,0.10,-272.73,-272.80,-16,501,-946,25.1,21.2,1.4,24.7,22.2,1.7,5.73,1.97,3.4,28.8
2015-08-25 00:59:00,0.0,1.90931,0.00117,383.006,0.158,0.8613,0.0103,139.998,45.000,31221.34051,1.92590,387.083,34.918,45.068,45.000,0.00,0.10,-272.73,-272.79,-16,502,-946,25.1,21.0,1.2,24.7,21.9,1.5,5.73,1.96,3.4,28.8
2015-08-25 01:00:00,0.0,1.90921,0.00064,382.656,0.166,0.8937,0.0129,139.998,45.000,31221.40209,1.92651,386.888,34.913,45.068,45.000,0.00,0.10,-272.73,-272.79,-16,502,-946,25.1,21.8,1.7,24.7,22.5,1.9,5.73,1.97,3.4,28.8
2015-08-25 01:01:00,0.0,1.90901,0.00044,382.948,0.121,0.8747,0.0098,140.000,45.000,31221.30237,1.92589,387.093,34.918,45.068,45.000,0.00,0.10,-272.74,-272.80,-16,501,-946,25.1,21.4,1.5,24.7,22.3,1.8,5.73,1.96,3.4,28.8
2015-08-25 01:02:00,0.0,1.90849,0.00078,382.788,0.319,0.8862,0.0204,139.999,45.000,31220.63026,1.92566,386.981,34.935,45.068,45.000,0.00,0.10,-272.73,-272.80,-16,502,-946,25.1,21.5,1.6,24.7,22.5,1.9,5.73,1.96,3.4,28.8
2015-08-25 01:03:00,0.0,1.90864,0.00045,383.167,0.110,0.8531,0.0090,140.001,45.000,31220.62969,1.92507,387.208,34.938,45.068,45.000,0.00,0.10,-272.74,-272.80,-16,502,-946,25.1,20.7,1.1,24.8,21.8,1.5,5.73,1.96,3.4,28.8
2015-08-25 01:04:00,0.0,1.90920,0.00090,383.040,0.231,0.8576,0.0163,140.000,45.000,31221.63250,1.92580,387.098,34.938,45.068,45.000,0.00,0.10,-272.74,-272.80,-16,502,-946,25.1,20.8,1.1,24.7,21.8,1.4,5.73,1.95,3.4,28.8
2015-08-25 01:05:00,0.0,1.90842,0.00039,383.462,0.047,0.8289,0.0038,139.999,45.000,31220.74597,1.92437,387.386,34.936,45.068,45.000,0.00,0.10,-272.73,-272.80,-16,501,-946,25.1,20.1,0.6,24.7,21.1,1.0,5.73,1.95,3.4,28.8
2015-08-25 01:06:00,0.0,1.90915,0.00045,383.190,0.156,0.8520,0.0133,140.001,45.000,31219.36603,1.92557,387.225,34.948,45.068,45.000,0.00,0.10,-272.73,-272.79,-16,502,-946,25.1,20.7,1.1,24.8,21.4,1.2,5.73,1.94,3.4,28.8
2015-08-25 01:07:00,0.0,1.90906,0.00053,382.908,0.169,0.8728,0.0092,139.999,45.000,31220.09689,1.92589,387.043,34.960,45.068,45.000,0.00,0.10,-272.74,-272.79,-16,502,-946,25.1,21.2,1.4,24.8,22.1,1.6,5.73,1.94,3.4,28.8
2015-08-25 01:08:00,0.0,1.90970,0.00074,383.055,0.125,0.8521,0.0082,139.998,45.000,31219.81149,1.92619,387.086,34.956,45.068,45.000,0.00,0.10,-272.74,-272.79,-16,502,-946,25.1,20.7,1.0,24.8,21.7,1.4,5.73,1.94,3.4,28.8
2015-08-25 01:09:00,0.0,1.90828,0.00041,383.356,0.091,0.8315,0.0058,139.999,45.000,31222.68325,1.92431,387.293,34.960,45.068,45.000,0.00,0.33,-270.67,-271.14,-16,502,-946,25.1,20.2,0.7,24.8,21.1,1.0,5.42,2.06,-3.4,28.8
2015-08-25 01:10:00,0.0,1.90845,0.00034,383.301,0.109,0.8379,0.0071,139.999,45.000,31222.22720,1.92460,387.267,34.951,45.068,45.000,0.00,0.10,-272.73,-272.79,-16,502,-946,25.1,20.4,0.8,24.8,21.2,1.1,5.73,1.94,3.4,28.8
2015-08-25 01:11:00,0.0,1.90859,0.00041,383.144,0.074,0.8494,0.0048,139.998,45.000,31222.63343,1.92498,387.166,34.959,45.068,45.000,0.00,0.10,-272.74,-272.80,-16,502,-946,25.1,20.7,1.0,24.8,21.4,1.3,5.73,1.94,3.4,28.8
2015-08-25 01:12:00,0.0,1.90867,0.00050,382.927,0.115,0.8656,0.0067,140.001,45.000,31225.19229,1.92537,387.028,34.948,45.068,45.000,0.00,0.10,-272.73,-272.80,-16,502,-946,25.1,21.1,1.3,24.8,21.8,1.5,5.73,1.94,3.4,28.8
2015-08-25 01:13:00,0.0,1.90967,0.00087,382.733,0.193,0.8792,0.0107,139.999,45.000,31224.16447,1.92662,386.893,34.955,45.068,45.000,0.00,0.10,-272.73,-272.79,-16,502,-946,25.1,21.4,1.5,24.8,22.2,1.7,5.73,1.94,3.4,28.8
2015-08-25 01:14:00,0.0,1.90850,0.00053,382.993,0.284,0.8588,0.0225,139.999,45.000,31225.35119,1.92516,387.052,34.967,45.068,45.000,0.00,0.10,-272.73,-272.79,-16,502,-946,25.1,20.7,1.1,24.8,22.0,1.6,5.73,1.93,3.4,28.8
2015-08-25 01:15:00,0.0,1.90824,0.00044,383.462,0.192,0.8145,0.0137,139.997,45.000,31225.58901,1.92391,387.317,34.992,45.068,45.000,0.00,0.10,-272.73,-272.80,-16,502,-946,25.1,19.7,0.4,24.8,20.7,0.8,5.73,1.93,3.4,28.8
2015-08-25 01:16:00,0.0,1.90831,0.00034,383.402,0.241,0.8217,0.0245,139.999,45.000,31225.64021,1.92413,387.294,34.995,45.068,45.000,0.00,0.10,-272.73,-272.80,-16,502,-946,25.1,20.0,0.6,24.8,20.6,0.7,5.73,1.93,3.5,28.8
2015-08-25 01:17:00,0.0,1.90831,0.00042,383.071,0.080,0.8584,0.0077,139.999,45.000,31225.03204,1.92489,387.136,35.000,45.068,45.000,0.00,0.10,-272.73,-272.80,-16,502,-946,25.1,20.9,1.2,24.8,21.6,1.4,5.73,1.94,3.5,28.8
2015-08-25 01:18:00,0.0,1.90814,0.00036,382.792,0.149,0.8757,0.0065,139.997,45.000,31226.39084,1.92503,386.939,35.000,45.068,45.000,0.00,0.10,-272.74,-272.80,-16,502,-946,25.1,21.3,1.5,24.8,22.1,1.7,5.73,1.94,3.5,28.8
2015-08-25 01:19:00,0.0,1.90843,0.00049,382.878,0.352,0.8740,0.0276,139.997,45.000,31225.47285,1.92530,387.014,34.999,45.068,45.000,0.00,0.10,-272.73,-272.80,-16,502,-946,25.1,21.2,1.4,24.8,22.2,1.8,5.73,1.95,3.5,28.8
2015-08-25 01:20:00,0.0,1.90839,0.00042,383.114,0.173,0.8528,0.0141,140.000,45.000,31226.23487,1.92485,387.152,35.000,45.068,45.000,0.00,0.10,-272.74,-272.79,-16,502,-946,25.1,20.7,1.1,24.8,21.6,1.4,5.73,1.94,3.5,28.9
2015-08-25 01:21:00,0.0,1.90839,0.00039,383.196,0.205,0.8412,0.0177,140.000,45.000,31224.84489,1.92463,387.175,35.021,45.068,45.000,0.00,0.10,-272.74,-272.80,-16,502,-946,25.1,20.3,0.8,24.8,21.4,1.3,5.73,1.95,3.5,28.9
2015-08-25 01:22:00,0.0,1.90886,0.00043,383.486,0.086,0.8086,0.0032,139.998,45.000,31226.57258,1.92443,387.313,35.037,45.068,45.000,0.00,0.10,-272.74,-272.80,-16,502,-947,25.1,19.5,0.3,24.8,20.5,0.7,5.73,1.94,3.5,28.9
2015-08-25 01:23:00,0.0,1.90849,0.00039,383.379,0.146,0.8143,0.0078,140.001,45.000,31228.32823,1.92421,387.231,35.052,45.068,45.000,0.00,0.10,-272.73,-272.80,-16,502,-946,25.1,19.7,0.4,24.8,20.6,0.7,5.73,1.94,3.5,28.8
2015-08-25 01:24:00,0.0,1.90847,0.00038,383.341,0.172,0.8230,0.0135,139.995,45.000,31226.66608,1.92434,387.234,35.062,45.068,45.000,0.00,0.10,-272.73,-272.80,-16,502,-947,25.1,19.8,0.5,24.9,20.7,0.9,5.73,1.94,3.5,28.9
2015-08-25 01:25:00,0.0,1.90876,0.00038,383.507,0.229,0.8053,0.0168,139.997,45.000,31225.81396,1.92424,387.321,35.058,45.067,45.000,0.00,0.10,-272.73,-272.80,-16,502,-947,25.1,19.6,0.3,24.8,20.3,0.5,5.73,1.95,3.5,28.8
2015-08-25 01:26:00,0.0,1.90849,0.00053,383.465,0.272,0.8042,0.0240,140.001,45.000,31228.29623,1.92397,387.272,35.062,45.068,45.000,0.00,0.10,-272.73,-272.79,-16,502,-947,25.2,19.4,0.2,24.9,20.3,0.6,5.73,1.95,3.5,28.9
2015-08-25 01:27:00,0.0,1.90873,0.00044,383.492,0.252,0.8048,0.0205,139.998,45.000,31227.79173,1.92424,387.299,35.061,45.068,45.000,0.00,0.10,-272.73,-272.79,-16,502,-947,25.1,19.5,0.2,24.9,20.3,0.6,5.73,1.95,3.5,28.9
2015-08-25 01:28:00,0.0,1.90906,0.00051,383.303,0.214,0.8224,0.0160,140.000,45.000,31227.70128,1.92490,387.191,35.050,45.068,45.000,0.00,0.10,-272.74,-272.80,-16,502,-947,25.2,19.8,0.5,24.9,20.7,0.9,5.73,1.96,3.5,28.9
2015-08-25 01:29:00,0.0,1.90944,0.00040,383.432,0.065,0.8140,0.0042,139.997,45.000,31227.65800,1.92513,387.282,35.047,45.068,45.000,0.00,0.10,-272.73,-272.80,-16,502,-947,25.2,19.7,0.4,24.9,20.5,0.7,5.73,1.95,3.5,28.9
2015-08-25 01:30:00,0.0,1.90922,0.00039,383.583,0.188,0.7958,0.0204,140.000,45.000,31228.92936,1.92459,387.348,35.060,45.068,45.000,0.00,0.10,-272.73,-272.80,-16,502,-947,25.2,19.1,-0.0,24.9,20.2,0.5,5.73,1.96,3.5,28.9
2015-08-25 01:31:00,0.0,1.90931,0.00032,383.916,0.080,0.7558,0.0062,139.999,45.000,31228.26928,1.92385,387.488,35.063,45.068,45.000,0.00,0.10,-272.73,-272.80,-16,502,-947,25.2,18.2,-0.7,24.9,19.1,-0.2,5.73,1.95,3.5,28.9
2015-08-25 01:32:00,0.0,1.90933,0.00026,383.948,0.099,0.7504,0.0098,140.001,45.000,31229.66782,1.92378,387.496,35.064,45.068,45.000,0.00,0.10,-272.73,-272.80,-16,502,-947,25.2,18.0,-0.8,24.9,19.0,-0.4,5.73,1.96,3.5,28.9
2015-08-25 01:33:00,0.0,1.90945,0.00071,383.834,0.221,0.7585,0.0176,140.000,45.000,31232.16794,1.92396,387.429,35.062,45.068,45.000,0.00,0.10,-272.73,-272.79,-16,502,-947,25.2,18.5,-0.5,24.9,18.9,-0.4,5.73,1.96,3.5,28.9
2015-08-25 01:34:00,0.0,1.90946,0.00134,383.480,0.259,0.7979,0.0159,139.998,45.000,31233.23867,1.92494,387.247,35.064,45.068,45.000,0.00,0.10,-272.74,-272.80,-16,502,-947,25.2,19.2,0.1,24.9,20.0,0.4,5.73,1.96,3.6,28.9
2015-08-25 01:35:00,0.0,1.91153,0.00129,383.175,0.131,0.8146,0.0121,140.000,45.000,31233.32688,1.92717,387.031,35.067,45.068,45.000,0.00,0.10,-272.74,-272.80,-16,502,-947,25.2,19.7,0.4,24.9,20.3,0.6,5.73,1.96,3.6,28.9
2015-08-25 01:36:00,0.0,1.91038,0.00104,383.220,0.117,0.8110,0.0068,139.998,45.000,31233.05134,1.92600,387.056,35.066,45.068,45.000,0.00,0.10,-272.73,-272.79,-16,502,-947,25.2,19.6,0.4,24.9,20.4,0.7,5.73,1.96,3.6,28.9
2015-08-25 01:37:00,0.0,1.91055,0.00077,383.310,0.108,0.8016,0.0086,140.001,45.000,31233.86698,1.92604,387.097,35.065,45.068,45.000,0.00,0.10,-272.73,-272.79,-16,502,-947,25.2,19.3,0.2,24.9,20.2,0.5,5.73,1.96,3.6,28.9
2015-08-25 01:38:00,0.0,1.90953,0.00056,383.508,0.166,0.7916,0.0127,139.999,45.000,31233.26554,1.92482,387.250,35.064,45.068,45.000,0.00,0.10,-272.73,-272.80,-16,502,-947,25.2,19.1,-0.0,24.9,20.0,0.4,5.73,1.96,3.6,28.9
2015-08-25 01:39:00,0.0,1.90944,0.00033,383.621,0.067,0.7830,0.0058,139.999,45.000,31233.02968,1.92451,387.325,35.099,45.068,45.000,0.00,0.10,-272.73,-272.79,-16,502,-947,25.2,18.9,-0.1,24.9,19.6,0.1,5.73,1.96,3.6,28.9
2015-08-25 01:40:00,0.0,1.90968,0.00038,383.308,0.187,0.8061,0.0157,140.001,45.000,31232.36565,1.92521,387.123,35.124,45.068,45.000,0.00,0.10,-272.72,-272.79,-16,502,-947,25.2,19.5,0.3,24.9,20.1,0.5,5.73,1.96,3.6,28.9
2015-08-25 01:41:00,0.0,1.90943,0.00060,383.030,0.201,0.8320,0.0170,139.999,45.000,31231.40357,1.92546,386.965,35.128,45.068,45.000,0.00,0.10,-272.73,-272.80,-16,502,-947,25.2,20.1,0.7,24.9,20.7,0.9,5.73,1.96,3.6,28.9
2015-08-25 01:42:00,0.0,1.90965,0.00047,383.398,0.250,0.8068,0.0219,139.998,45.000,31230.87681,1.92521,387.210,35.129,45.067,45.000,0.00,0.10,-272.73,-272.80,-16,502,-947,25.2,19.4,0.2,24.9,20.6,0.8,5.73,1.96,3.6,28.9
2015-08-25 01:43:00,0.0,1.91044,0.00046,383.529,0.149,0.7821,0.0073,139.998,45.000,31230.32217,1.92547,387.233,35.128,45.067,45.000,0.00,0.10,-272.72,-272.79,-16,502,-947,25.2,18.9,-0.1,24.9,19.6,0.2,5.73,1.96,3.6,29.0
2015-08-25 01:44:00,0.0,1.91095,0.00084,383.297,0.303,0.7948,0.0192,139.999,45.000,31232.07367,1.92634,387.051,35.137,45.067,45.000,0.00,0.10,-272.73,-272.80,-16,502,-947,25.2,19.2,0.1,24.9,20.0,0.4,5.73,1.96,3.6,28.9
2015-08-25 01:45:00,0.0,1.90911,0.00060,383.559,0.259,0.7860,0.0253,140.000,45.000,31233.92217,1.92427,387.271,35.129,45.068,45.000,0.00,0.10,-272.74,-272.80,-16,502,-947,25.2,18.8,-0.2,25.0,19.8,0.3,5.73,1.96,3.6,29.0
2015-08-25 01:46:00,0.0,1.90979,0.00058,383.870,0.050,0.7483,0.0055,139.997,45.000,31233.84154,1.92415,387.410,35.132,45.068,45.000,0.00,0.10,-272.73,-272.79,-16,502,-947,25.2,18.0,-0.8,24.9,18.8,-0.4,5.73,1.96,3.6,29.0